Weather Service Report


929 
ASUS45 KBOU 011007
RWRCO 

WEATHER ROUNDUP FOR COLORADO
NATIONAL WEATHER SERVICE DENVER/BOULDER CO
400 AM MDT WED OCT 01 2014

NOTE: "FAIR" INDICATES FEW OR NO CLOUDS BELOW 12000 FEET WITH NO
SIGNIFICANT WEATHER AND/OR OBSTRUCTIONS TO VISIBILITY.

COZ001>005-013-030-031-011100-
...NORTHWEST COLORADO...
  
CITY           SKY/WX    TMP DP  RH WIND       PRES   REMARKS
CRAIG          CLOUDY    44  40  85 SE7       29.96F                  
HAYDEN         CLOUDY    43  39  87 SE6       29.97F                  
MEEKER         CLOUDY    42  38  85 SE5       29.96F                  
MOUNT WERNER   NOT AVBL                                               
STEAMBOAT SPGS MOCLDY    40  39  97 NW5       29.97F                  
WALDEN         MOCLDY    36  32  87 CALM      30.00S                  
$$

COZ006>008-011-011100-
...WEST CENTRAL VALLEYS...
  
CITY           SKY/WX    TMP DP  RH WIND       PRES   REMARKS
GRAND JUNCTION MOCLDY    48  42  80 E10       29.88F                  
MONTROSE       CLOUDY    47  41  80 E3        29.98S                  
EAGLE          MOCLDY    39  39 100 CALM      30.02S                  
RIFLE          LGT RAIN  44  41  89 NW3       29.95F                  
DELTA          RAIN      49  44  83 NE7       29.94F                  
NUCLA          CLOUDY    45  41  87 SE9       29.98F                  
$$

COZ017>023-064>068-011100-
...SOUTHWEST COLORADO...
  
CITY           SKY/WX    TMP DP  RH WIND       PRES   REMARKS
DURANGO        PTCLDY    39  36  89 NE3       30.00F                  
CORTEZ         CLEAR     40  38  93 CALM      29.95F                  
PAGOSA SPRINGS PTCLDY    35  35  99 CALM      30.05S                  
TELLURIDE      MOCLDY   N/A N/A N/A SE7       30.07F                  
WOLF CREEK PAS PTCLDY    28  28 100 SW14      30.18F WCI  17          
$$

COZ009-010-012-014-032>034-037-058>063-011100-
...CENTRAL COLORADO...
  
CITY           SKY/WX    TMP DP  RH WIND       PRES   REMARKS
ASPEN          MOCLDY    35  32  88 CALM      30.01F                  
BUENA VISTA    PTCLDY    33  29  85 CALM      30.03S                  
COPPER MTN     PTCLDY    32  27  80 W12       30.13F WCI  23          
BERTHOUD PASS    N/A     23  21  93 NW20      30.15R WCI   8          
COTTONWOOD PAS PTCLDY    37  30  75 N3        30.08F                  
GUNNISON       MOCLDY    32  28  86 CALM      30.07F                  
KREMMLING      MOCLDY    37  36  93 CALM      30.02F                  
LEADVILLE      MOCLDY    32  26  78 NE6       30.06F WCI  26          
MONARCH PASS   FOG       30  28  93 MISG      30.25S VSB<1/4          
SALIDA         PTCLDY    43  32  66 N8        30.09S                  
SUNLIGHT       MOCLDY    34  34 100 CALM      30.11F                  
WILKERSON PASS NOT AVBL                                               
$$

COZ069>075-011100-
...SAN LUIS VALLEY/SANGRE DE CRISTO MOUNTAINS...
  
CITY           SKY/WX    TMP DP  RH WIND       PRES   REMARKS
ALAMOSA        MOCLDY    35  31  85 CALM      30.03F                  
LA VETA PASS   PTCLDY    34  30  86 S8        30.09S WCI  27          
SAGUACHE       MOCLDY    34  32  93 NW8       30.05S WCI  27          
$$

COZ035-036-038>040-011100-
...NORTHERN COLORADO FRONT RANGE...
  
CITY           SKY/WX    TMP DP  RH WIND       PRES   REMARKS
DENVER INTL AP MOCLDY    45  38  76 S12       29.87F                  
DMNS CITY PARK   N/A     47  38  73 S6        29.86F                  
AURORA         PTCLDY    46  36  67 S9        29.89F                  
FRONT RANGE AP PTCLDY    45  39  81 S6        29.89S                  
ERIE MUNI ARPT PTCLDY    45  38  75 CALM      29.86S                  
BOULDER MUN AP PTCLDY    46  37  71 CALM      29.86S                  
CENTENNIAL     PTCLDY    41  36  82 S6        29.89F                  
BROOMFIELD     PTCLDY    50  34  53 SE3       29.88S                  
FORT COLLINS   MOCLDY    46  39  76 NW6       29.88S                  
LONGMONT       MOCLDY    48  40  73 CALM      29.87F HAZE             
$$

COZ041-046-047-076>085-087-088-011100-
...PIKES PEAK/PALMER DIVIDE AND SOUTHERN FOOTHILLS...
  
CITY           SKY/WX    TMP DP  RH WIND       PRES   REMARKS
COLO. SPRINGS  PTCLDY    51  31  46 NW7       29.92S                  
A. F. ACADEMY  PTCLDY    48  28  45 N8        29.92S                  
ELLICOTT       NOT AVBL                                               
FALCON         PTCLDY    46  29  53 NW7       29.94S                  
FORT CARSON    PTCLDY    47  34  59 S8        29.90R                  
LIMON          CLEAR     42  38  85 NW5       29.89F                  
MONUMENT HILL  CLEAR     36  30  80 S5        29.93F                  
TRINIDAD       PTCLDY    44  34  67 W10       29.91S                  
$$

COZ042>045-048>051-090-091-011100-
...NORTHEAST COLORADO...
  
CITY           SKY/WX    TMP DP  RH WIND       PRES   REMARKS
GREELEY ARPT   PTCLDY    45  37  76 CALM      29.87R                  
AKRON          CLEAR     48  40  73 N12       29.85S                  
BURLINGTON     CLEAR     50  44  80 NW8       29.83R                  
WRAY           CLEAR     48  45  88 W5        29.81S                  
STERLING       CLEAR     48  45  87 CALM      29.82S                  
HOLYOKE        CLEAR     54  45  71 W7        29.81S                  
FORT MORGAN    CLEAR     46  42  88 SW3       29.86R                  
$$

COZ086-089-092>099-011100-
...SOUTHEAST COLORADO...
  
CITY           SKY/WX    TMP DP  RH WIND       PRES   REMARKS
PUEBLO         PTCLDY    46  35  65 NW8       29.86S                  
LA JUNTA       CLEAR     48  39  71 W9        29.83S                  
LAMAR          CLEAR     47  44  90 S8        29.78F                  
SPRINGFIELD      N/A     50  36  58 W10       29.82S                  
$$

Return to Home page


Western Regional Climate Center, wrcc@dri.edu